Stations météo

réclame
Mon MeteoGroup
Solenzara, France (7765): Température de l'air & dewpoint: 17.09.2017 22:00:00 - 23.09.2017 22:00:00 (CEST)Solenzara, France (7765): Température de l'air 5cm: 17.09.2017 22:00:00 - 23.09.2017 22:00:00 (CEST)Solenzara, France (7765): Température de l'air -20cm: 17.09.2017 22:00:00 - 23.09.2017 22:00:00 (CEST)Solenzara, France (7765): Vitesse du vent & gusts: 17.09.2017 22:00:00 - 23.09.2017 22:00:00 (CEST)Solenzara, France (7765): Direction du vent: 17.09.2017 22:00:00 - 23.09.2017 22:00:00 (CEST)Solenzara, France (7765): reduced air pressure: 17.09.2017 22:00:00 - 23.09.2017 22:00:00 (CEST)Solenzara, France (7765): visibility: 17.09.2017 22:00:00 - 23.09.2017 22:00:00 (CEST)Solenzara, France (7765): Ensoleillement: 17.09.2017 22:00:00 - 23.09.2017 22:00:00 (CEST)Solenzara, France (7765): Quantités de précipitations: 17.09.2017 22:00:00 - 23.09.2017 22:00:00 (CEST)
Date & Time tt [°C] td [°C] tt 5cm [°C] tt -20cm [°C] ff [km/h] ff [knt] fx [km/h] fx [knt] dd ppp [hPa] vv [km] sd [min] rr [mm]
23.09.2017 22:00:00 - - - - - - - - - - - - -
23.09.2017 21:00:00 21,8 16,3 21,6 24,2 12 7 29 16 SSW 1019,7 60 0 0,0
23.09.2017 20:00:00 21,9 17,3 21,3 24,2 19 10 27 15 S 1019,7 60 0 0,0
23.09.2017 19:00:00 21,9 16,8 22,0 24,1 19 11 28 15 S 1019,4 60 10 0,0
23.09.2017 18:00:00 22,5 17,0 23,0 24,0 21 12 31 17 SSE 1019,7 56 16 0,0
23.09.2017 17:00:00 22,8 17,3 24,2 23,8 20 11 29 16 SSE 1019,7 45 26 0,0
23.09.2017 16:00:00 22,9 16,9 24,4 23,6 20 11 31 17 SSE 1020,1 60 44 0,0
23.09.2017 15:00:00 22,7 16,3 24,6 23,4 20 11 31 17 SSE 1020,3 60 43 0,0
23.09.2017 14:00:00 23,0 16,8 25,8 23,2 21 12 35 19 SE 1020,7 50 37 0,0
23.09.2017 13:00:00 24,2 17,2 26,3 23,0 23 12 35 19 SE 1020,9 60 60 0,0
23.09.2017 12:00:00 23,7 16,5 28,6 22,9 23 12 34 19 SSE 1021,3 60 60 0,0
23.09.2017 11:00:00 23,0 15,6 27,2 22,8 10 6 18 10 ESE 1021,6 60 60 0,0
23.09.2017 10:00:00 22,4 15,0 24,3 22,9 7 4 14 8 ESE 1021,4 60 60 0,0
23.09.2017 09:00:00 20,7 11,6 20,4 23,0 4 2 13 7 W 1021,2 60 60 0,0
23.09.2017 08:00:00 18,0 10,1 16,0 23,1 8 4 18 10 W 1021,4 60 23 0,0
23.09.2017 07:00:00 17,0 9,7 15,9 23,3 9 5 18 10 W 1021,3 60 0 0,0
23.09.2017 06:00:00 16,9 10,3 16,0 23,4 10 5 19 11 W 1021,1 60 0 0,0
23.09.2017 05:00:00 17,2 10,6 16,5 23,5 10 5 17 9 W 1021,1 60 0 0,0
23.09.2017 04:00:00 17,0 11,5 15,9 23,6 10 5 22 12 W 1021,5 60 0 0,0
23.09.2017 03:00:00 16,9 11,8 16,1 23,8 9 5 21 12 WNW 1021,6 60 0 0,0
23.09.2017 02:00:00 17,0 12,3 16,3 23,8 8 5 16 9 WNW 1021,9 60 0 0,0
23.09.2017 01:00:00 17,8 12,7 16,9 24,0 9 5 19 11 W 1021,7 60 0 0,0
23.09.2017 00:00:00 18,6 13,2 17,5 24,1 8 5 15 8 W 1021,9 60 0 0,0
22.09.2017 23:00:00 18,4 14,1 17,3 24,1 8 4 16 9 W 1022,0 60 0 0,0
22.09.2017 22:00:00 18,4 14,5 17,6 24,1 8 5 14 8 W 1022,0 60 0 0,0
22.09.2017 21:00:00 19,2 14,9 18,2 24,1 7 4 10 5 W 1021,8 60 0 0,0
22.09.2017 20:00:00 20,4 15,2 19,5 24,0 4 2 12 6 W 1021,3 60 0 0,0
22.09.2017 19:00:00 20,8 15,3 20,2 23,9 10 5 16 9 S 1021,1 60 7 0,0
22.09.2017 18:00:00 21,8 14,9 22,4 23,6 13 7 22 12 S 1021,0 59 52 0,0
22.09.2017 17:00:00 22,7 15,0 24,9 23,4 14 8 25 14 SSE 1020,9 40 60 0,0
22.09.2017 16:00:00 23,0 14,8 26,3 23,1 14 7 24 13 SSE 1020,8 60 60 0,0
22.09.2017 15:00:00 23,0 15,3 29,5 22,8 17 9 24 13 SE 1021,1 58 60 0,0
22.09.2017 14:00:00 23,3 15,9 29,2 22,5 17 9 25 13 ESE 1021,2 60 60 0,0
22.09.2017 13:00:00 22,7 14,8 28,8 22,3 15 8 23 13 ESE 1021,4 60 60 0,0
22.09.2017 12:00:00 22,2 14,8 28,5 22,2 14 8 21 12 ESE 1021,5 60 60 0,0
22.09.2017 11:00:00 21,7 13,3 28,2 22,2 10 5 17 9 ESE 1021,6 45 60 0,0
22.09.2017 10:00:00 21,6 12,4 21,9 22,3 6 3 11 6 E 1021,4 54 58 0,0
22.09.2017 09:00:00 18,5 6,7 17,7 22,4 7 4 18 10 W 1021,0 60 60 0,0
22.09.2017 08:00:00 15,3 6,6 13,2 22,6 11 6 21 11 W 1020,6 55 38 0,0
22.09.2017 07:00:00 14,0 6,8 13,1 22,7 13 7 21 11 W 1020,5 60 0 0,0
22.09.2017 06:00:00 14,3 6,9 13,2 22,9 12 6 22 12 W 1020,5 60 0 0,0
22.09.2017 05:00:00 14,4 7,4 13,3 23,1 12 6 22 12 W 1020,4 60 0 0,0
22.09.2017 04:00:00 14,4 7,7 13,2 23,2 12 6 18 10 W 1020,3 60 0 0,0
22.09.2017 03:00:00 14,8 8,5 13,4 23,4 6 3 21 11 WNW 1020,5 60 0 0,0
22.09.2017 02:00:00 15,5 8,5 14,4 23,5 12 7 21 11 W 1020,5 60 0 0,0
22.09.2017 01:00:00 15,4 9,3 14,6 23,7 13 7 21 11 WNW 1020,4 60 0 0,0
22.09.2017 00:00:00 16,0 9,6 15,1 23,8 11 6 22 12 W 1020,1 60 0 0,0
21.09.2017 23:00:00 16,6 9,8 15,6 23,8 10 5 20 11 W 1020,0 60 0 0,0
21.09.2017 22:00:00 17,4 10,0 16,5 23,9 11 6 19 11 W 1019,9 60 0 0,0
21.09.2017 21:00:00 17,9 10,5 16,9 23,9 11 6 20 11 W 1019,7 60 0 0,0
21.09.2017 20:00:00 18,6 10,9 17,6 23,8 9 5 15 8 W 1019,4 60 0 0,0
21.09.2017 19:00:00 20,7 12,1 20,1 23,6 8 5 18 10 SE 1019,2 60 49 0,0
21.09.2017 18:00:00 22,4 10,5 22,4 23,4 8 4 15 8 SE 1019,2 60 55 0,0
21.09.2017 17:00:00 22,7 11,1 25,4 23,0 8 4 16 9 ESE 1018,9 60 57 0,0
21.09.2017 16:00:00 22,9 12,2 28,9 22,7 9 5 18 10 SE 1019,1 60 60 0,0
21.09.2017 15:00:00 22,9 11,6 30,4 22,4 10 5 21 11 ESE 1019,3 60 60 0,0
21.09.2017 14:00:00 22,5 11,2 29,6 22,1 13 7 23 13 SE 1019,4 60 60 0,0
21.09.2017 13:00:00 21,9 13,0 29,2 21,9 14 8 25 13 SSE 1019,7 60 60 0,0
21.09.2017 12:00:00 21,5 13,7 27,8 21,8 13 7 21 12 SE 1020,0 53 60 0,0
21.09.2017 11:00:00 21,6 12,7 27,7 21,8 10 5 16 9 SE 1019,8 49 60 0,0
21.09.2017 10:00:00 21,5 10,6 22,5 21,8 6 4 10 5 SE 1019,6 48 60 0,0
21.09.2017 09:00:00 18,2 5,4 17,4 22,0 7 4 17 9 W 1019,4 60 60 0,0
21.09.2017 08:00:00 15,1 4,7 12,6 22,2 11 6 21 11 W 1019,2 48 41 0,0
21.09.2017 07:00:00 13,7 4,8 12,6 22,3 12 6 27 14 W 1019,0 60 0 0,0
21.09.2017 06:00:00 13,8 4,9 12,5 22,5 11 6 22 12 WNW 1018,9 60 0 0,0
21.09.2017 05:00:00 14,2 5,5 13,1 22,7 13 7 22 12 W 1018,9 60 0 0,0
21.09.2017 04:00:00 14,2 6,3 13,2 22,8 14 7 24 13 W 1018,8 60 0 0,0
21.09.2017 03:00:00 14,7 6,0 13,6 23,0 13 7 23 12 W 1018,9 60 0 0,0
21.09.2017 02:00:00 15,0 6,8 13,8 23,1 12 6 23 12 W 1019,0 60 0 0,0
21.09.2017 01:00:00 15,1 7,4 14,1 23,2 12 6 22 12 WNW 1018,7 60 0 0,0
21.09.2017 00:00:00 15,7 8,2 14,7 23,3 14 7 23 12 W 1018,6 60 0 0,0
20.09.2017 23:00:00 16,2 9,4 15,0 23,4 11 6 22 12 W 1018,4 60 0 0,0
20.09.2017 22:00:00 16,3 10,8 15,3 23,4 11 6 21 12 W 1017,9 60 0 0,0
20.09.2017 21:00:00 17,1 11,6 16,1 23,4 11 6 23 13 W 1017,8 60 0 0,0
20.09.2017 20:00:00 18,2 13,3 17,2 23,3 11 6 18 10 W 1017,5 60 0 0,0
20.09.2017 19:00:00 19,8 13,3 19,4 23,2 8 4 16 9 W 1017,1 60 2 0,0
20.09.2017 18:00:00 20,7 12,9 20,6 23,1 8 5 20 11 W 1016,8 47 21 0,0
20.09.2017 17:00:00 21,0 13,4 21,9 22,8 4 2 23 12 SSW 1016,9 53 1 0,0
20.09.2017 16:00:00 22,1 12,6 22,1 22,6 18 10 27 14 E 1016,8 41 44 0,0
20.09.2017 15:00:00 22,8 11,8 28,6 22,3 18 10 29 15 SE 1016,6 44 60 0,0
20.09.2017 14:00:00 22,1 9,9 28,7 22,1 18 10 29 16 SSE 1016,7 60 60 0,0
20.09.2017 13:00:00 21,9 9,4 28,1 21,9 16 9 27 14 SSE 1016,7 60 60 0,0
20.09.2017 12:00:00 21,9 8,7 27,1 21,8 14 7 21 11 SSE 1016,7 54 60 0,0
20.09.2017 11:00:00 21,7 7,5 26,4 21,9 11 6 18 10 ESE 1016,5 53 60 0,0
20.09.2017 10:00:00 20,2 8,8 16,8 22,0 4 2 16 9 SSW 1016,0 59 53 0,0
20.09.2017 09:00:00 16,6 9,0 14,6 22,2 11 6 23 12 W 1015,4 60 28 0,0
20.09.2017 08:00:00 15,2 9,1 11,2 22,4 10 5 37 20 W 1015,6 60 2 0,0
20.09.2017 07:00:00 11,6 6,3 9,1 22,6 17 9 33 18 NNW 1015,4 60 0 0,0
20.09.2017 06:00:00 11,9 6,8 8,3 22,8 3 2 12 6 N 1013,8 60 0 0,0
20.09.2017 05:00:00 11,8 6,9 9,9 23,0 6 4 16 8 NNW 1013,5 60 0 0,0
20.09.2017 04:00:00 12,0 7,9 10,0 23,2 10 5 14 8 W 1013,9 60 0 0,0
20.09.2017 03:00:00 12,4 8,7 10,9 23,4 9 5 22 12 SW 1013,8 60 0 0,0
20.09.2017 02:00:00 12,7 9,5 11,7 23,6 12 7 23 12 W 1014,2 60 0 0,0
20.09.2017 01:00:00 13,6 9,6 12,4 23,8 11 6 27 15 W 1014,8 60 0 0,0
20.09.2017 00:00:00 12,5 9,0 10,8 23,9 10 5 25 13 NW 1015,5 60 0 0,0
19.09.2017 23:00:00 12,7 8,8 11,4 24,1 11 6 22 12 W 1014,1 60 0 0,0
19.09.2017 22:00:00 13,3 9,2 11,2 24,1 11 6 20 11 W 1013,3 60 0 0,2
19.09.2017 21:00:00 13,6 8,8 11,4 24,1 16 9 38 21 WNW 1013,9 7 0 1,2
19.09.2017 20:00:00 18,1 10,2 17,8 24,1 11 6 35 19 N 1012,4 60 0 0,0
19.09.2017 19:00:00 19,8 4,7 19,5 24,0 20 11 42 23 W 1011,0 60 6 0,0
19.09.2017 18:00:00 20,6 4,6 21,0 23,9 15 8 29 16 WNW 1010,7 60 20 0,0
19.09.2017 17:00:00 21,2 11,2 22,5 23,7 8 4 21 11 E 1010,6 60 14 0,0
19.09.2017 16:00:00 21,0 11,9 23,2 23,5 12 6 20 11 E 1010,9 60 16 0,0
19.09.2017 15:00:00 21,2 12,6 24,1 23,4 14 8 23 12 ESE 1011,5 54 34 0,0
19.09.2017 14:00:00 21,9 12,7 25,2 23,2 16 9 24 13 ESE 1011,9 20 48 0,0
19.09.2017 13:00:00 21,5 13,1 25,8 23,1 16 9 23 13 ESE 1012,1 60 60 0,0
19.09.2017 12:00:00 21,3 14,0 26,1 23,1 16 8 24 13 SE 1012,4 60 60 0,0
19.09.2017 11:00:00 20,4 12,6 25,8 23,1 13 7 21 12 SSE 1012,1 56 60 0,0
19.09.2017 10:00:00 19,5 12,0 19,7 23,2 6 4 17 9 S 1011,9 39 60 0,0
19.09.2017 09:00:00 17,7 12,2 16,8 23,3 10 5 20 11 N 1012,0 46 60 0,0
19.09.2017 08:00:00 16,0 11,8 14,2 23,5 20 11 37 20 N 1011,6 42 32 0,0
19.09.2017 07:00:00 17,1 8,0 14,9 23,7 16 9 51 27 N 1011,6 60 0 0,0
19.09.2017 06:00:00 18,7 6,5 14,6 23,8 21 11 41 22 W 1011,0 60 0 0,0
19.09.2017 05:00:00 15,9 10,4 13,9 24,0 10 5 20 11 WNW 1011,0 60 0 0,0
19.09.2017 04:00:00 16,5 14,1 13,3 24,2 10 5 17 9 SE 1011,4 60 0 0,0
19.09.2017 03:00:00 15,1 13,0 13,6 24,3 6 4 12 7 WNW 1012,0 60 0 0,0
19.09.2017 02:00:00 15,1 13,3 14,0 24,5 9 5 13 7 WNW 1012,5 60 0 0,0
19.09.2017 01:00:00 15,1 13,8 13,9 24,7 5 3 13 7 W 1012,5 60 0 0,0
19.09.2017 00:00:00 15,4 13,9 14,5 24,8 7 4 10 6 NW 1013,1 60 0 0,0
18.09.2017 23:00:00 15,9 14,6 14,7 24,9 5 3 15 8 W 1013,6 60 0 0,0
18.09.2017 22:00:00 15,8 14,0 15,0 25,0 12 6 38 20 N 1013,7 17 0 2,4
18.09.2017 21:00:00 16,5 14,9 15,9 25,1 23 12 32 18 N 1013,8 11 0 1,2
18.09.2017 20:00:00 17,1 14,9 16,5 25,2 10 5 18 10 N 1013,2 60 0 0,0
18.09.2017 19:00:00 17,7 15,5 16,8 25,2 2 1 15 8 NNW 1013,4 60 0 0,0
18.09.2017 18:00:00 17,9 15,7 17,1 25,2 11 6 23 12 NNW 1013,8 53 0 0,0
18.09.2017 17:00:00 18,0 14,9 16,9 25,1 2 1 13 7 W 1014,8 20 0 1,8
18.09.2017 16:00:00 19,0 15,3 17,5 25,1 8 4 13 7 W 1015,1 14 0 1,8
18.09.2017 15:00:00 21,8 10,9 20,2 25,0 8 4 11 6 NNE 1014,5 58 0 0,0
18.09.2017 14:00:00 23,4 11,1 26,1 24,9 10 5 21 11 ESE 1015,1 59 1 0,0
18.09.2017 13:00:00 24,0 11,0 25,5 24,9 14 8 23 12 SE 1015,6 56 32 0,0
18.09.2017 12:00:00 23,0 10,4 25,2 24,9 11 6 19 10 ESE 1015,9 60 26 0,0
18.09.2017 11:00:00 22,6 10,1 24,7 25,0 14 8 19 10 SE 1016,0 59 1 0,0
18.09.2017 10:00:00 22,1 7,9 25,0 25,0 6 3 10 6 ESE 1016,4 60 35 0,0
18.09.2017 09:00:00 22,1 7,1 17,6 25,2 4 2 11 6 SSW 1016,0 58 43 0,0
18.09.2017 08:00:00 18,0 5,2 12,6 25,3 6 3 10 5 NW 1016,1 60 17 0,0
18.09.2017 07:00:00 16,1 4,8 13,2 25,5 6 4 10 6 NNW 1015,9 60 0 0,0
18.09.2017 06:00:00 18,2 4,4 14,7 25,6 6 3 12 6 NW 1015,5 60 0 0,0
18.09.2017 05:00:00 18,1 4,6 15,7 25,7 5 3 16 9 N 1015,8 60 0 0,0
18.09.2017 04:00:00 20,7 4,7 17,6 25,8 5 3 18 10 NW 1016,0 60 0 0,0
18.09.2017 03:00:00 20,0 5,2 18,2 25,9 3 2 24 13 NE 1016,3 60 0 0,0
18.09.2017 02:00:00 21,4 3,6 18,7 26,0 14 8 27 14 WNW 1016,3 60 0 0,0
18.09.2017 01:00:00 21,1 4,6 19,6 26,1 13 7 29 15 WNW 1016,7 60 0 0,0
18.09.2017 00:00:00 21,5 3,6 18,5 26,2 11 6 36 19 W 1016,7 60 0 0,0
17.09.2017 23:00:00 21,2 4,3 18,4 26,3 12 6 27 15 WSW 1017,0 60 0 0,0
17.09.2017 22:00:00 20,5 4,5 18,9 26,3 8 4 37 20 W 1016,9 60 0 0,0

tt = Température de l'air
td = dewpoint
tt 5cm = Température de l'air 5cm
tt -20cm = Température de l'air -20cm
ff = Vitesse du vent
fx = gusts
dd = Direction du vent
ppp = reduced air pressure
vv = visibility
sd = Ensoleillement
rr = Quantités de précipitations

stations d'obs. à proximité